• In Russia
  • List of Countries
  • For 7 days
  • Water Temperature
  • Satellite Maps
  • Weather Map
  • Weather Widgets
  • user-avatar
    Login

    Hourly Weather Kitzbuhel

    Today, 6 December, Tuesday

    Time Temperature Precipitation Wind Pressure Humidity
    00:00 -6°C° 0 mm 1 mps 680 mmHg 58%
    01:00 -7°C° 0 mm 1 mps 680 mmHg 59%
    02:00 -6°C° 0 mm 1 mps 681 mmHg 58%
    03:00 -6°C° 0 mm 1 mps 681 mmHg 57%
    04:00 -6°C° 0 mm 2 mps 681 mmHg 57%
    05:00 -6°C° 0 mm 2 mps 681 mmHg 57%
    06:00 -6°C° 0 mm 2 mps 681 mmHg 57%
    07:00 -6°C° 0 mm 2 mps 682 mmHg 61%
    08:00 -4°C° 0 mm 2 mps 683 mmHg 60%
    09:00 0°C° 0 mm 1 mps 683 mmHg 59%
    10:00 +2°C° 0 mm 1 mps 684 mmHg 59%
    11:00 +3°C° 0 mm 1 mps 684 mmHg 60%
    12:00 +4°C° 0 mm 1 mps 684 mmHg 60%
    13:00 +5°C° 0 mm 1 mps 684 mmHg 61%
    14:00 +3°C° 0 mm 1 mps 683 mmHg 65%
    15:00 +1°C° 0 mm 1 mps 683 mmHg 69%
    16:00 -2°C° 0 mm 1 mps 682 mmHg 73%
    17:00 -2°C° 0 mm 1 mps 683 mmHg 72%
    18:00 -3°C° 0 mm 1 mps 683 mmHg 71%
    19:00 -4°C° 0 mm 1 mps 683 mmHg 70%
    20:00 -4°C° 0 mm 1 mps 683 mmHg 69%
    21:00 -4°C° 0 mm 1 mps 683 mmHg 68%
    22:00 -4°C° 0 mm 1 mps 683 mmHg 67%
    23:00 -4°C° 0 mm 1 mps 684 mmHg 66%

    Tomorrow, 7 December, Wednesday

    Time Temperature Precipitation Wind Pressure Humidity
    00:00 -4°C° 0 mm 1 mps 684 mmHg 66%
    01:00 -4°C° 0 mm 1 mps 684 mmHg 65%
    02:00 -4°C° 0 mm 1 mps 684 mmHg 64%
    03:00 -4°C° 0 mm 1 mps 684 mmHg 62%
    04:00 -4°C° 0 mm 1 mps 684 mmHg 61%
    05:00 -4°C° 0 mm 1 mps 683 mmHg 60%
    06:00 -4°C° 0 mm 1 mps 683 mmHg 59%
    07:00 -6°C° 0 mm 1 mps 683 mmHg 59%
    08:00 -2°C° 0 mm 1 mps 684 mmHg 58%
    09:00 +1°C° 0 mm 1 mps 685 mmHg 57%
    10:00 +3°C° 0 mm 1 mps 686 mmHg 55%
    11:00 +3°C° 0 mm 0 mps 686 mmHg 56%
    12:00 +4°C° 0 mm 0 mps 686 mmHg 58%
    13:00 +6°C° 0 mm 0 mps 686 mmHg 59%
    14:00 +3°C° 0 mm 0 mps 685 mmHg 62%
    15:00 0°C° 0 mm 0 mps 685 mmHg 64%
    16:00 -3°C° 0 mm 0 mps 684 mmHg 67%
    17:00 -4°C° 0 mm 0 mps 684 mmHg 66%
    18:00 -3°C° 0 mm 1 mps 684 mmHg 65%
    19:00 -4°C° 0 mm 1 mps 684 mmHg 64%
    20:00 -4°C° 0 mm 1 mps 684 mmHg 63%
    21:00 -3°C° 0 mm 1 mps 684 mmHg 63%
    22:00 -3°C° 0 mm 1 mps 684 mmHg 62%
    23:00 -3°C° 0 mm 1 mps 684 mmHg 62%

    Day after tomorrow, 8 December, Thursday

    Time Temperature Precipitation Wind Pressure Humidity
    00:00 -3°C° 0 mm 1 mps 684 mmHg 61%
    01:00 -3°C° 0 mm 1 mps 684 mmHg 61%
    02:00 -3°C° 0 mm 1 mps 684 mmHg 60%
    03:00 -2°C° 0 mm 1 mps 684 mmHg 59%
    04:00 -2°C° 0 mm 1 mps 684 mmHg 58%
    05:00 -2°C° 0 mm 1 mps 684 mmHg 58%
    06:00 -1°C° 0 mm 1 mps 684 mmHg 57%
    07:00 -1°C° 0 mm 1 mps 684 mmHg 57%
    08:00 +1°C° 0 mm 1 mps 685 mmHg 58%
    09:00 +4°C° 0 mm 1 mps 685 mmHg 58%
    10:00 +6°C° 0 mm 1 mps 686 mmHg 59%
    11:00 +7°C° 0 mm 1 mps 686 mmHg 60%
    12:00 +7°C° 0 mm 1 mps 686 mmHg 61%
    13:00 +8°C° 0 mm 1 mps 686 mmHg 62%
    14:00 +6°C° 0 mm 1 mps 685 mmHg 64%
    15:00 +2°C° 0 mm 0 mps 684 mmHg 67%
    16:00 -1°C° 0 mm 0 mps 683 mmHg 69%
    17:00 0°C° 0 mm 1 mps 683 mmHg 66%
    18:00 0°C° 0 mm 1 mps 683 mmHg 63%
    19:00 -1°C° 0 mm 1 mps 683 mmHg 60%
    20:00 0°C° 0 mm 1 mps 684 mmHg 58%
    21:00 0°C° 0 mm 1 mps 684 mmHg 56%
    22:00 0°C° 0 mm 1 mps 684 mmHg 54%
    23:00 -2°C° 0 mm 2 mps 684 mmHg 53%

    9 December, Friday

    Time Temperature Precipitation Wind Pressure Humidity
    00:00 -2°C° 0 mm 2 mps 684 mmHg 52%
    01:00 -1°C° 0 mm 2 mps 684 mmHg 51%
    02:00 -1°C° 0 mm 2 mps 684 mmHg 51%
    03:00 +2°C° 0 mm 1 mps 684 mmHg 51%
    04:00 +2°C° 0 mm 1 mps 684 mmHg 52%
    05:00 +1°C° 0 mm 1 mps 684 mmHg 50%
    06:00 0°C° 0 mm 1 mps 684 mmHg 48%
    07:00 0°C° 0 mm 1 mps 684 mmHg 45%
    08:00 +2°C° 0 mm 1 mps 685 mmHg 46%
    09:00 +3°C° 0 mm 1 mps 685 mmHg 46%
    10:00 +4°C° 0 mm 2 mps 686 mmHg 47%
    11:00 +6°C° 0 mm 1 mps 686 mmHg 50%
    12:00 +7°C° 0 mm 1 mps 685 mmHg 53%
    13:00 +8°C° 0 mm 1 mps 685 mmHg 57%
    14:00 +6°C° 0 mm 1 mps 684 mmHg 55%
    15:00 +3°C° 0 mm 1 mps 683 mmHg 54%
    16:00 +1°C° 0 mm 1 mps 683 mmHg 53%
    17:00 +1°C° 0 mm 1 mps 682 mmHg 54%
    18:00 0°C° 0 mm 1 mps 682 mmHg 54%
    19:00 0°C° 0 mm 1 mps 682 mmHg 54%
    20:00 0°C° 0 mm 1 mps 682 mmHg 54%
    21:00 -1°C° 0 mm 1 mps 682 mmHg 54%
    22:00 -1°C° 0 mm 1 mps 682 mmHg 55%
    23:00 -1°C° 0 mm 1 mps 682 mmHg 57%

    10 December, Saturday

    Time Temperature Precipitation Wind Pressure Humidity
    00:00 -1°C° 0 mm 1 mps 681 mmHg 58%
    01:00 -1°C° 0 mm 1 mps 681 mmHg 60%
    02:00 0°C° 0 mm 1 mps 681 mmHg 61%
    03:00 0°C° 0 mm 1 mps 681 mmHg 63%
    04:00 0°C° 0 mm 1 mps 680 mmHg 64%
    05:00 -1°C° 0 mm 1 mps 680 mmHg 65%
    06:00 -1°C° 0 mm 1 mps 680 mmHg 66%
    07:00 -1°C° 0 mm 1 mps 680 mmHg 67%
    08:00 +1°C° 0 mm 1 mps 681 mmHg 66%
    09:00 +4°C° 0 mm 1 mps 682 mmHg 65%
    10:00 +6°C° 0 mm 1 mps 682 mmHg 64%
    11:00 +7°C° 0 mm 1 mps 682 mmHg 65%
    12:00 +8°C° 0 mm 1 mps 682 mmHg 66%
    13:00 +8°C° 0 mm 0 mps 682 mmHg 67%
    14:00 +5°C° 0 mm 0 mps 681 mmHg 70%
    15:00 +2°C° 0 mm 0 mps 680 mmHg 72%
    16:00 0°C° 0 mm 0 mps 679 mmHg 74%
    17:00 -1°C° 0 mm 0 mps 678 mmHg 75%
    18:00 -1°C° 0 mm 0 mps 678 mmHg 75%
    19:00 -2°C° 0 mm 0 mps 678 mmHg 75%
    20:00 -1°C° 0 mm 1 mps 678 mmHg 72%
    21:00 0°C° 0 mm 1 mps 678 mmHg 69%
    22:00 0°C° 0 mm 1 mps 678 mmHg 66%
    23:00 0°C° 0 mm 1 mps 678 mmHg 66%

    11 December, Sunday

    Time Temperature Precipitation Wind Pressure Humidity
    00:00 0°C° 0 mm 1 mps 678 mmHg 66%
    01:00 0°C° 0 mm 1 mps 677 mmHg 66%
    02:00 0°C° 0 mm 1 mps 677 mmHg 65%
    03:00 -2°C° 0 mm 2 mps 677 mmHg 64%
    04:00 -2°C° 0 mm 2 mps 676 mmHg 63%
    05:00 -2°C° 0 mm 2 mps 676 mmHg 63%
    06:00 -3°C° 0 mm 2 mps 676 mmHg 63%
    07:00 -1°C° 0 mm 1 mps 675 mmHg 64%
    08:00 +1°C° 0 mm 1 mps 676 mmHg 63%
    09:00 +2°C° 0 mm 2 mps 677 mmHg 62%
    10:00 +4°C° 0 mm 2 mps 677 mmHg 60%
    11:00 +6°C° 0 mm 1 mps 677 mmHg 63%
    12:00 +6°C° 0 mm 1 mps 676 mmHg 65%
    13:00 +7°C° 0 mm 1 mps 676 mmHg 67%
    14:00 +6°C° 0.2 mm 1 mps 676 mmHg 72%
    15:00 +4°C° 0.2 mm 2 mps 676 mmHg 76%
    16:00 +3°C° 0.2 mm 2 mps 676 mmHg 80%
    17:00 +3°C° 0.3 mm 2 mps 676 mmHg 84%
    18:00 +2°C° 0.3 mm 2 mps 677 mmHg 87%
    19:00 +2°C° 0.3 mm 2 mps 677 mmHg 91%
    20:00 +2°C° 0.4 mm 2 mps 677 mmHg 93%
    21:00 +2°C° 0.4 mm 2 mps 677 mmHg 95%
    22:00 +2°C° 0.4 mm 2 mps 677 mmHg 97%
    23:00 +2°C° 0.3 mm 2 mps 677 mmHg 97%
    Show more